Regional Weather Roundup
Issued by NWS Grand Forks, ND

Home | Current Version | Previous Version | Graphics & Text | Print | Product List | Glossary On
Versions: 1 2 3 4 5 6 7 8 9 10 11 12 13 14 15 16 17 18 19 20 21 22 23 24 25 26 27 28 29 30 31 32 33 34 35 36 37 38 39 40 41 42 43 44 45 46 47 48 49 50
000
ASUS43 KFGF 260510
RWRFGF
PRAIRIE TO PINES  WEATHER ROUNDUP
NATIONAL WEATHER SERVICE EASTERN NORTH DAKOTA/GRAND FORKS ND
1200 AM CDT SUN APR 26 2015

 **SATELLITE DATA USED TO AUGMENT SKY COVER AT AUTOMATED STATIONS**
 *****  WEATHER ACROSS EASTERN NORTH DAKOTA  *****

CITY           SKY/WX    TMP DP  RH WIND       PRES   REMARKS
GRAND FORKS    CLEAR     46  33  60 SE9       29.98R
GRAND FRKS AFB CLEAR     37  32  81 SE1       29.98R
GRAND FRKS NWS   N/A     46 N/A N/A S6          N/A
DEVILS LAKE    CLOUDY    46  39  76 SE6       29.96S
FARGO          CLEAR     47  30  51 SE8       29.98R
WAHPETON ARPT  CLEAR     45  32  61 E6        29.99R
$$

 ***** WEATHER ACROSS CENTRAL AND WESTERN NORTH DAKOTA  *****

CITY           SKY/WX    TMP DP  RH WIND       PRES   REMARKS
BISMARCK       CLOUDY    48  43  82 SE8       29.93R
MINOT          CLOUDY    48  41  76 SE12      29.89F
JAMESTOWN      CLOUDY    48  40  73 S3        29.95S
MINOT AFB      CLOUDY    48  47  99 SE13      29.88F
GARRISON         N/A     46  43  89 SE9       29.89S
WILLISTON      CLOUDY    46  44  93 SW9       29.85R
DICKINSON      LGT RAIN  44  42  93 W10       29.87R
HETTINGER      LGT RAIN  45  43  93 W5        29.91R
$$

 *****  OTHER AIRPORT OBSERVATIONS IN OUR AREA  *****

CITY           SKY/WX    TMP DP  RH WIND       PRES   REMARKS
WALHALLA       FAIR      50  32  50 E8        29.99R
GRAFTON AIRPOR FAIR      45  32  61 S6        29.99R
VALLEY CITY AR FAIR      41  41 100 CALM      29.98R
CANDO          CLOUDY    48  41  76 S7        29.97R
CAVALIER APRT  FAIR      46  32  57 CALM      29.99R
GWINNER        CLEAR     43  43 100 SW3       29.98R
SHEYENNE NWR     N/A     40  38  93 E3        29.95
ROLLA          CLOUDY    48  39  71 S8        29.96R
 ***** THE ABOVE OBSERVATIONS ARE NON NWS ARE NOT QUALITY
       CONTROLLED AND MAY MIS-REPORT RAIN FOR SNOW...
$$

  *****  WEATHER ACROSS NORTHERN MINNESOTA  *****

CITY           SKY/WX    TMP DP  RH WIND       PRES   REMARKS
FLAG ISLAND    CLEAR     48  28  46 E5        30.04R
WARROAD        CLEAR     37  32  81 CALM      30.05R
ROSEAU         CLEAR     39  30  70 E3        30.03S
HALLOCK        CLEAR     45  30  57 E9        29.99S
THF RVR FALLS  CLEAR     46  28  49 E8        30.01R
BAUDETTE       CLEAR     41  29  62 E5        30.04R
WASKISH        CLEAR     41  28  60 CALM      30.04R
CROOKSTON      CLEAR     43  30  61 SE8       30.00S
$$
  *****  WEATHER ACROSS CENTRAL AND WEST MINNESOTA  *****

CITY           SKY/WX    TMP DP  RH WIND       PRES   REMARKS
FOSSTON        CLEAR     39  27  60 CALM      30.01S
BEMIDJI        CLEAR     32  27  79 CALM      30.02R
PARK RAPIDS    CLEAR     43  26  51 SE8       30.01R
ELBOW LAKE     FAIR      46  33  61 E8        29.99R
WADENA         CLEAR     39  28  65 E5        30.00S
DETROIT LAKES  CLEAR     46  30  53 SE3       30.00F
MOORHEAD       CLEAR     45  28  53 SE6       29.99S
FERGUS FALLS   CLEAR     46  27  46 E3        30.01R
MORRIS MN      FAIR      46  34  61 E10       29.97S
STAPLES        CLEAR     43  14  31 E5        30.02R
$$
  *****  WEATHER ELSEWHERE ACROSS MINNESOTA  *****

CITY           SKY/WX    TMP DP  RH WIND       PRES   REMARKS
DULUTH         CLEAR     34  15  46 E3        30.04R
INTRNTL FALLS  CLEAR     41  25  53 NE6       30.05R
ELY            CLEAR     28  18  64 CALM      30.06R
CLOQUET        CLEAR     32  16  51 NE3       30.04R
WHEATON        CLEAR     37  36  93 E5        30.00R
BRAINERD       CLEAR     39   8  27 E6        30.03R
HIBBING        CLEAR     28  15  58 CALM      30.05R
ALEXANDRIA     CLEAR     43  29  57 E7        30.00R
SAINT CLOUD    CLEAR     41  18  39 NE8       30.01R
MINNEAPOLIS    CLEAR     48  25  40 NE9       29.98R
$$

  *****  WEATHER ACROSS SOUTH DAKOTA  *****

CITY           SKY/WX    TMP DP  RH WIND       PRES   REMARKS
SIOUX FALLS    MOCLDY    47  38  71 E6        29.95R
BROOKINGS      PTCLDY    45  39  81 SE7       29.97R
WATERTOWN      MOCLDY    48  40  73 E3        29.96R
HURON          PTCLDY    51  42  71 SE10      29.93R
SISSETON         N/A     43  40  89 CALM      29.96R
ABERDEEN       CLOUDY    51  42  71 E6        29.95R
MITCHELL       MOCLDY    51  43  74 SE10      29.94R
PIERRE         CLOUDY    53  46  77 SE7       29.88S
MOBRIDGE       CLOUDY    51  42  71 E14       29.89R
RAPID CITY     LGT RAIN  46  42  86 N16       29.86F
$$

  *****  SOME WEATHER IN NEARBY STATES *****

CITY           SKY/WX    TMP DP  RH WIND       PRES   REMARKS
GLASGOW MT     NOT AVBL
GREAT FALLS MT CLOUDY    39  28  64 NE16      29.94R
CHEYENNE WY    CLOUDY    44  39  82 E13       29.81F
SCOTTSBLUFF NE LGT RAIN  52  47  83 VRB7      29.83R
OMAHA NE       CLOUDY    50  43  77 E8        29.90R
DES MOINES IA  MOCLDY    48  38  68 E9        29.90R
DAVENPORT IA   CLOUDY    44  35  70 NE8       29.90R
CHICAGO IL     PTCLDY    41  30  65 N9        29.85R
EAU CLAIRE WI  CLEAR     43  23  45 NE8       29.97R
LA CROSSE WI   CLEAR     41  22  46 E3        29.95R
$$

  *****  SOME NATIONAL WEATHER *****

CITY           SKY/WX    TMP DP  RH WIND       PRES   REMARKS
LA GUARDIA NY  MOCLDY    48  35  60 E5        29.69F
RALEIGH NC     FOG       48  47  96 NE7       29.65F VSB 1/2
ATLANTA GA     PTCLDY    67  63  87 SW12      29.65F
NEW ORLEANS LA PTCLDY    70  65  84 SW5       29.75S
OKLAHOMA CITY  PTCLDY    66  50  56 SE6       29.67S
ALBUQUERQUE NM MOCLDY    62  29  28 S7        29.80S
SALT LAKE CITY LGT RAIN  44  42  93 W9        29.73R
LOS ANGELES CA PTCLDY    58  50  75 W13       29.90R
BOISE ID       PTCLDY    46  31  55 W13       29.89R
SEATTLE WA     PTCLDY    47  36  65 SE7       30.08R
$$

*** WEATHER ACROSS MANITOBA...SASKATCHEWAN AND ONTARIO ***
                ***ONTARIO***

CITY           SKY/WX    TMP DP  RH WIND       PRES   REMARKS
GERALDTON      CLEAR     30  25  80 N3        30.09R
THUNDER BAY    CLEAR     27  21  80 W6        30.08S WCI  20
SIOUX LOOKOUT  CLEAR     36  14  41 NE3       30.10R
TORONTO        PTCLDY    37  27  65 N16       29.81S
BIG TROUT LK   CLEAR     28  25  86 NE5       30.21R WCI  23
PICKLE LAKE    NOT AVBL
DRYDEN         CLEAR     34  28  80 NE6       30.08R
KENORA         PTCLDY    43  27  52 E8        30.07R
$$
                *** MANITOBA***

CITY           SKY/WX    TMP DP  RH WIND       PRES   REMARKS
BRANDON        CLOUDY    45  37  76 E8        29.95S
DAUPHIN        CLOUDY    45  37  76 E9        29.96F
ISLAND LAKE    PTCLDY    36  18  48 E7        30.16R
PILOT MOUND      N/A     39  34  81 SE8         N/A
THE PAS        CLOUDY    34  28  80 VRB2      30.10S
THOMPSON       CLOUDY    32  30  93 NE6       30.17S
WINNIPEG       CLEAR     50  28  43 SE13G18   30.02R
LYNN LAKE      PTCLDY    28  19  69 N5        30.19R WCI  23
CHURCHILL      CLEAR     21  18  86 SE5       30.29S WCI  15
GILLAM         CLOUDY    36  19  51 MISG      30.20R
$$
                ***SASKATCHEWAN***

CITY           SKY/WX    TMP DP  RH WIND       PRES   REMARKS
ESTEVAN        LGT RAIN  46  45  93 SE15G23   29.84R
KINDERSLEY     NOT AVBL
LLOYDMINSTER   CLOUDY    34  19  55 N8        30.03S
PRINCE ALBERT  LGT SNOW  32  30  93 NE14      30.01F VSB 1   WCI  22
REGINA         LGT RAIN  46  46 100 SE17G24   29.77S
YORKTON        CLOUDY    48  37  66 E15G22    29.88F
N. BATTLEFORD  LGT SNOW  32  30  93 N10       30.02F WCI  24
LA RONGE       MOCLDY    34  18  51 NE6       30.13S
SASKATOON      LGT SNOW  32  30  93 NE21G28   29.93F WCI  20
SWIFT CURRENT  LGT SNOW  30  30 100 NW17G24   29.85S WCI  18
$$
NOTE: THESE ARE AUTOMATED STATIONS WITH LIMITED QUALITY CONTROL
      "FAIR" INDICATES FEW OR NO CLOUDS BELOW 12,000 FEET WITH NO
      SIGNIFICANT WEATHER AND/OR OBSTRUCTIONS TO VISIBILITY.
      SKY/WX - SKY CONDITION AND SIGNIFICANT WEATHER.
      TMP - AIR TEMPERATURE.    DP   - DEWPOINT TEMPERATURE.
      RH  - RELATIVE HUMIDITY.  PRES - PRESSURE.
      HX  - HEAT INDEX.         WCI  - WIND CHILL INDEX.
$



USA.gov is the U.S. government's official web portal to all federal, state and local government web resources and services.